Time,TemperatureF,DewpointF,PressureIn,WindDirection,WindDirectionDegrees,WindSpeedMPH,WindSpeedGustMPH,Humidity,HourlyPrecipIn,Conditions,Clouds,dailyrainin,SoftwareType,DateUTC
2013-01-23 00:08:00,5.8,-7.0,30.22,West,261,0.0,-999.0,55,-99.99,,,0.00,weatherlink.com 1.10,2013-01-23 05:08:00,
2013-01-23 00:23:00,5.8,-7.0,30.21,West,277,0.0,-999.0,56,-99.99,,,0.00,weatherlink.com 1.10,2013-01-23 05:23:00,
2013-01-23 00:38:00,5.8,-7.0,30.21,SW,229,0.0,-999.0,57,-99.99,,,0.00,weatherlink.com 1.10,2013-01-23 05:38:00,
2013-01-23 00:53:00,5.8,-7.0,30.21,WSW,250,0.0,-999.0,57,-99.99,,,0.00,weatherlink.com 1.10,2013-01-23 05:53:00,
2013-01-23 01:09:00,5.6,-6.0,30.21,WSW,251,0.0,-999.0,58,-99.99,,,0.00,weatherlink.com 1.10,2013-01-23 06:09:00,
2013-01-23 01:23:00,5.6,-6.0,30.21,WSW,244,0.0,-999.0,59,-99.99,,,0.00,weatherlink.com 1.10,2013-01-23 06:23:00,
2013-01-23 01:38:00,5.8,-6.0,30.21,North,5,0.0,-999.0,59,-99.99,,,0.00,weatherlink.com 1.10,2013-01-23 06:38:00,
2013-01-23 01:53:00,5.6,-6.0,30.22,WSW,254,0.0,-999.0,60,-99.99,,,0.00,weatherlink.com 1.10,2013-01-23 06:53:00,
2013-01-23 02:08:00,5.8,-5.0,30.22,West,274,0.0,-999.0,60,-99.99,,,0.00,weatherlink.com 1.10,2013-01-23 07:08:00,
2013-01-23 02:24:00,6.0,-5.0,30.23,WSW,251,0.0,-999.0,60,-99.99,,,0.00,weatherlink.com 1.10,2013-01-23 07:24:00,
2013-01-23 02:38:00,6.0,-5.0,30.23,West,265,0.0,-999.0,60,-99.99,,,0.00,weatherlink.com 1.10,2013-01-23 07:38:00,
2013-01-23 02:53:00,6.0,-5.0,30.23,WNW,294,2.0,-999.0,60,-99.99,,,0.00,weatherlink.com 1.10,2013-01-23 07:53:00,
2013-01-23 03:08:00,5.8,-5.0,30.22,NNW,336,0.0,-999.0,61,-99.99,,,0.00,weatherlink.com 1.10,2013-01-23 08:08:00,
2013-01-23 03:24:00,5.8,-5.0,30.23,WSW,238,0.0,-999.0,61,-99.99,,,0.00,weatherlink.com 1.10,2013-01-23 08:24:00,
2013-01-23 03:38:00,5.8,-5.0,30.22,WSW,257,0.0,-999.0,61,-99.99,,,0.00,weatherlink.com 1.10,2013-01-23 08:38:00,
2013-01-23 03:53:00,5.6,-5.0,30.22,WSW,256,0.0,-999.0,62,-99.99,,,0.00,weatherlink.com 1.10,2013-01-23 08:53:00,
2013-01-23 04:08:00,5.6,-5.0,30.22,NW,308,0.0,-999.0,62,-99.99,,,0.00,weatherlink.com 1.10,2013-01-23 09:08:00,
2013-01-23 04:23:00,5.8,-5.0,30.22,WNW,295,0.0,-999.0,62,-99.99,,,0.00,weatherlink.com 1.10,2013-01-23 09:23:00,
2013-01-23 04:38:00,6.0,-5.0,30.22,NW,311,0.0,-999.0,62,-99.99,,,0.00,weatherlink.com 1.10,2013-01-23 09:38:00,
2013-01-23 04:53:00,6.0,-5.0,30.23,SSE,151,0.0,-999.0,62,-99.99,,,0.00,weatherlink.com 1.10,2013-01-23 09:53:00,
2013-01-23 05:08:00,5.8,-4.0,30.23,North,5,0.0,-999.0,63,-99.99,,,0.00,weatherlink.com 1.10,2013-01-23 10:08:00,
2013-01-23 05:24:00,5.6,-5.0,30.23,NNW,329,0.0,-999.0,63,-99.99,,,0.00,weatherlink.com 1.10,2013-01-23 10:24:00,
2013-01-23 05:38:00,5.6,-4.0,30.24,WSW,252,0.0,-999.0,64,-99.99,,,0.00,weatherlink.com 1.10,2013-01-23 10:38:00,
2013-01-23 05:54:00,5.2,-5.0,30.24,North,360,0.0,-999.0,64,-99.99,,,0.00,weatherlink.com 1.10,2013-01-23 10:54:00,
2013-01-23 06:08:00,5.2,-5.0,30.24,NNW,330,0.0,-999.0,64,-99.99,,,0.00,weatherlink.com 1.10,2013-01-23 11:08:00,
2013-01-23 06:23:00,5.2,-4.0,30.24,NNE,15,0.0,-999.0,65,-99.99,,,0.00,weatherlink.com 1.10,2013-01-23 11:23:00,
2013-01-23 06:39:00,5.0,-4.0,30.25,NW,318,0.0,-999.0,65,-99.99,,,0.00,weatherlink.com 1.10,2013-01-23 11:39:00,
2013-01-23 06:53:00,5.0,-4.0,30.25,NNW,346,0.0,-999.0,65,-99.99,,,0.00,weatherlink.com 1.10,2013-01-23 11:53:00,
2013-01-23 07:08:00,4.8,-4.0,30.25,North,355,0.0,-999.0,66,-99.99,,,0.00,weatherlink.com 1.10,2013-01-23 12:08:00,
2013-01-23 07:23:00,4.7,-4.0,30.25,West,279,0.0,-999.0,66,-99.99,,,0.00,weatherlink.com 1.10,2013-01-23 12:23:00,
2013-01-23 07:38:00,4.5,-4.0,30.25,NNW,328,0.0,-999.0,67,-99.99,,,0.00,weatherlink.com 1.10,2013-01-23 12:38:00,
2013-01-23 07:54:00,4.5,-4.0,30.25,North,355,0.0,-999.0,68,-99.99,,,0.00,weatherlink.com 1.10,2013-01-23 12:54:00,
2013-01-23 08:08:00,4.5,-4.0,30.25,North,355,0.0,-999.0,69,-99.99,,,0.00,weatherlink.com 1.10,2013-01-23 13:08:00,
2013-01-23 08:23:00,4.8,-3.0,30.25,NW,304,0.0,-999.0,70,-99.99,,,0.00,weatherlink.com 1.10,2013-01-23 13:23:00,
2013-01-23 08:39:00,5.8,-2.0,30.26,WNW,289,0.0,-999.0,70,-99.99,,,0.00,weatherlink.com 1.10,2013-01-23 13:39:00,
2013-01-23 08:53:00,6.5,-2.0,30.26,NNW,344,0.0,-999.0,68,-99.99,,,0.00,weatherlink.com 1.10,2013-01-23 13:53:00,
2013-01-23 09:08:00,7.0,-2.0,30.27,North,5,0.0,-999.0,67,-99.99,,,0.00,weatherlink.com 1.10,2013-01-23 14:08:00,
2013-01-23 09:25:00,7.6,-2.0,30.27,WNW,294,0.0,-999.0,66,-99.99,,,0.00,weatherlink.com 1.10,2013-01-23 14:25:00,
2013-01-23 09:38:00,8.1,-2.0,30.27,North,350,0.0,-999.0,65,-99.99,,,0.00,weatherlink.com 1.10,2013-01-23 14:38:00,
2013-01-23 09:54:00,8.6,-1.0,30.27,NE,42,0.0,-999.0,64,-99.99,,,0.00,weatherlink.com 1.10,2013-01-23 14:54:00,
2013-01-23 10:08:00,9.2,-2.0,30.27,NNE,31,1.0,-999.0,62,-99.99,,,0.00,weatherlink.com 1.10,2013-01-23 15:08:00,
2013-01-23 10:23:00,9.3,-2.0,30.27,North,355,0.0,-999.0,60,-99.99,,,0.00,weatherlink.com 1.10,2013-01-23 15:23:00,
2013-01-23 10:38:00,9.5,-2.0,30.26,NW,317,0.0,-999.0,60,-99.99,,,0.00,weatherlink.com 1.10,2013-01-23 15:38:00,
2013-01-23 10:53:00,10.2,-2.0,30.26,WSW,252,0.0,-999.0,59,-99.99,,,0.00,weatherlink.com 1.10,2013-01-23 15:53:00,
2013-01-23 11:08:00,11.1,-2.0,30.26,North,10,0.0,-999.0,57,-99.99,,,0.00,weatherlink.com 1.10,2013-01-23 16:08:00,
2013-01-23 11:23:00,11.6,-2.0,30.25,WSW,249,0.0,-999.0,54,-99.99,,,0.00,weatherlink.com 1.10,2013-01-23 16:23:00,
2013-01-23 11:39:00,12.1,-3.0,30.24,North,350,0.0,-999.0,51,-99.99,,,0.00,weatherlink.com 1.10,2013-01-23 16:39:00,
2013-01-23 11:53:00,12.6,-3.0,30.23,NNE,24,1.0,-999.0,50,-99.99,,,0.00,weatherlink.com 1.10,2013-01-23 16:53:00,
2013-01-23 12:08:00,12.9,-4.0,30.22,WSW,249,0.0,-999.0,47,-99.99,,,0.00,weatherlink.com 1.10,2013-01-23 17:08:00,
2013-01-23 12:23:00,12.9,-4.0,30.22,WSW,242,0.0,-999.0,47,-99.99,,,0.00,weatherlink.com 1.10,2013-01-23 17:23:00,
2013-01-23 12:38:00,12.9,-5.0,30.21,WSW,244,1.0,-999.0,45,-99.99,,,0.00,weatherlink.com 1.10,2013-01-23 17:38:00,
2013-01-23 12:53:00,13.5,-5.0,30.20,WNW,297,0.0,-999.0,43,-99.99,,,0.00,weatherlink.com 1.10,2013-01-23 17:53:00,
2013-01-23 13:09:00,13.3,-5.0,30.20,WSW,254,0.0,-999.0,43,-99.99,,,0.00,weatherlink.com 1.10,2013-01-23 18:09:00,
2013-01-23 13:23:00,13.6,-5.0,30.19,WSW,241,0.0,-999.0,43,-99.99,,,0.00,weatherlink.com 1.10,2013-01-23 18:23:00,
2013-01-23 13:40:00,13.8,-5.0,30.18,SW,226,3.0,-999.0,43,-99.99,,,0.00,weatherlink.com 1.10,2013-01-23 18:40:00,
2013-01-23 13:54:00,14.1,-6.0,30.18,WSW,237,0.0,-999.0,40,-99.99,,,0.00,weatherlink.com 1.10,2013-01-23 18:54:00,
2013-01-23 14:08:00,14.4,-5.0,30.18,WSW,237,0.0,-999.0,41,-99.99,,,0.00,weatherlink.com 1.10,2013-01-23 19:08:00,
2013-01-23 14:23:00,14.3,-5.0,30.18,North,5,4.0,-999.0,43,-99.99,,,0.00,weatherlink.com 1.10,2013-01-23 19:23:00,
2013-01-23 14:39:00,14.0,0.0,30.18,WSW,244,0.0,-999.0,53,-99.99,,,0.00,weatherlink.com 1.10,2013-01-23 19:39:00,
2013-01-23 14:54:00,13.3,1.0,30.18,SW,223,0.0,-999.0,59,-99.99,,,0.00,weatherlink.com 1.10,2013-01-23 19:54:00,
2013-01-23 15:09:00,13.5,3.0,30.18,WSW,244,0.0,-999.0,64,-99.99,,,0.00,weatherlink.com 1.10,2013-01-23 20:09:00,
2013-01-23 15:24:00,13.3,5.0,30.18,WSW,249,1.0,-999.0,69,-99.99,,,0.00,weatherlink.com 1.10,2013-01-23 20:24:00,
2013-01-23 15:39:00,13.5,6.0,30.17,WSW,251,0.0,-999.0,72,-99.99,,,0.00,weatherlink.com 1.10,2013-01-23 20:39:00,
2013-01-23 15:53:00,13.5,4.0,30.17,WSW,242,0.0,-999.0,66,-99.99,,,0.00,weatherlink.com 1.10,2013-01-23 20:53:00,
2013-01-23 16:09:00,13.5,3.0,30.16,WSW,257,0.0,-999.0,62,-99.99,,,0.00,weatherlink.com 1.10,2013-01-23 21:09:00,
2013-01-23 16:24:00,13.5,2.0,30.16,SW,236,4.0,-999.0,61,-99.99,,,0.00,weatherlink.com 1.10,2013-01-23 21:24:00,
2013-01-23 16:38:00,13.5,2.0,30.16,SW,231,2.0,-999.0,60,-99.99,,,0.00,weatherlink.com 1.10,2013-01-23 21:38:00,
2013-01-23 16:54:00,13.5,1.0,30.16,SW,224,0.0,-999.0,58,-99.99,,,0.00,weatherlink.com 1.10,2013-01-23 21:54:00,
2013-01-23 17:09:00,13.6,0.0,30.16,WSW,249,0.0,-999.0,54,-99.99,,,0.00,weatherlink.com 1.10,2013-01-23 22:09:00,
2013-01-23 17:23:00,13.5,-1.0,30.16,WSW,240,0.0,-999.0,52,-99.99,,,0.00,weatherlink.com 1.10,2013-01-23 22:23:00,
2013-01-23 17:39:00,13.3,-2.0,30.16,WSW,245,0.0,-999.0,51,-99.99,,,0.00,weatherlink.com 1.10,2013-01-23 22:39:00,
2013-01-23 17:54:00,13.3,-1.0,30.16,WSW,246,0.0,-999.0,52,-99.99,,,0.00,weatherlink.com 1.10,2013-01-23 22:54:00,
2013-01-23 18:09:00,13.1,-2.0,30.16,WSW,244,0.0,-999.0,50,-99.99,,,0.00,weatherlink.com 1.10,2013-01-23 23:09:00,
2013-01-23 18:24:00,12.8,-2.0,30.16,WSW,244,0.0,-999.0,51,-99.99,,,0.00,weatherlink.com 1.10,2013-01-23 23:24:00,
2013-01-23 18:39:00,12.4,-3.0,30.16,WSW,244,0.0,-999.0,51,-99.99,,,0.00,weatherlink.com 1.10,2013-01-23 23:39:00,
2013-01-23 18:53:00,12.3,-2.0,30.16,WSW,244,0.0,-999.0,52,-99.99,,,0.00,weatherlink.com 1.10,2013-01-23 23:53:00,
2013-01-23 19:09:00,12.3,-2.0,30.16,WSW,244,0.0,-999.0,52,-99.99,,,0.00,weatherlink.com 1.10,2013-01-24 00:09:00,
2013-01-23 19:24:00,12.3,-2.0,30.15,WSW,244,0.0,-999.0,52,-99.99,,,0.00,weatherlink.com 1.10,2013-01-24 00:24:00,
2013-01-23 19:39:00,12.6,-3.0,30.14,WSW,244,0.0,-999.0,50,-99.99,,,0.00,weatherlink.com 1.10,2013-01-24 00:39:00,
2013-01-23 19:53:00,12.8,-4.0,30.15,NW,311,0.0,-999.0,48,-99.99,,,0.00,weatherlink.com 1.10,2013-01-24 00:53:00,
2013-01-23 20:08:00,12.8,-4.0,30.14,WSW,256,2.0,-999.0,47,-99.99,,,0.00,weatherlink.com 1.10,2013-01-24 01:08:00,
2013-01-23 20:24:00,12.6,-5.0,30.14,SW,225,0.0,-999.0,46,-99.99,,,0.00,weatherlink.com 1.10,2013-01-24 01:24:00,
2013-01-23 20:39:00,12.6,-5.0,30.14,WSW,251,0.0,-999.0,46,-99.99,,,0.00,weatherlink.com 1.10,2013-01-24 01:39:00,
2013-01-23 20:54:00,12.6,-5.0,30.14,West,261,0.0,-999.0,45,-99.99,,,0.00,weatherlink.com 1.10,2013-01-24 01:54:00,
2013-01-23 21:08:00,12.8,-5.0,30.14,WSW,255,1.0,-999.0,46,-99.99,,,0.00,weatherlink.com 1.10,2013-01-24 02:08:00,
2013-01-23 21:23:00,12.8,-5.0,30.15,West,259,0.0,-999.0,45,-99.99,,,0.00,weatherlink.com 1.10,2013-01-24 02:23:00,
2013-01-23 21:39:00,13.1,-5.0,30.14,WSW,241,1.0,-999.0,44,-99.99,,,0.00,weatherlink.com 1.10,2013-01-24 02:39:00,
2013-01-23 21:54:00,13.1,-4.0,30.15,WNW,292,0.0,-999.0,47,-99.99,,,0.00,weatherlink.com 1.10,2013-01-24 02:54:00,
2013-01-23 22:08:00,12.9,-3.0,30.15,SW,233,1.0,-999.0,50,-99.99,,,0.00,weatherlink.com 1.10,2013-01-24 03:08:00,
2013-01-23 22:24:00,12.9,-3.0,30.14,SW,224,0.0,-999.0,50,-99.99,,,0.00,weatherlink.com 1.10,2013-01-24 03:24:00,
2013-01-23 22:39:00,12.9,-4.0,30.14,West,271,0.0,-999.0,48,-99.99,,,0.00,weatherlink.com 1.10,2013-01-24 03:39:00,
2013-01-23 22:54:00,12.9,-2.0,30.15,WSW,244,0.0,-999.0,51,-99.99,,,0.00,weatherlink.com 1.10,2013-01-24 03:54:00,
2013-01-23 23:10:00,12.8,-1.0,30.14,NW,323,0.0,-999.0,54,-99.99,,,0.00,weatherlink.com 1.10,2013-01-24 04:10:00,
2013-01-23 23:24:00,12.6,0.0,30.14,SW,225,0.0,-999.0,57,-99.99,,,0.00,weatherlink.com 1.10,2013-01-24 04:24:00,
2013-01-23 23:39:00,12.4,0.0,30.14,SW,225,0.0,-999.0,59,-99.99,,,0.00,weatherlink.com 1.10,2013-01-24 04:39:00,
2013-01-23 23:54:00,12.4,0.0,30.14,SW,225,0.0,-999.0,59,-99.99,,,0.00,weatherlink.com 1.10,2013-01-24 04:54:00,